Location: Delmar
(42.6220°N, 73.8326°W)
Time: 06:07:44
(UTC+00:00)

Cosmos 2263 Rocket - Pass Details

Date: 29 October 2020
Orbit: 822 x 850 km, 71.0° (Epoch: 27 November)

Event Time Altitude Azimuth Distance (km) Brightness Sun altitude
Rises 23:43:17 0° 342° (NNW) 3,421 5.6 -21.1°
Reaches altitude 10° 23:45:59 10° 352° (N) 2,483 4.7 -21.6°
Enters shadow 23:50:19 32° 39° (NE) 1,425 3.0 -22.4°
